CAPE
0 0 0 0 0 0 0 0 0 0 0 0 0 0 0 4 1 16 29 16 68 50 44 25 98 369 544 534 499 487 551 589 411 128 207 600 683 506 449 479 562 578
0 5 74 0 0 12 0 0 0 0 0 0 0 0 0 0 4 27 5 10 115 146 8 1 31 110 175 501 480 329 534 567 152 333 173 186 460 478 515 520 580 676
0 3 6 0 0 0 0 0 0 0 0 0 0 0 0 1 0 12 0 0 13 46 8 0 0 9 23 45 65 155 192 18 12 2 256 386 445 499 522 537 603 643
0 0 0 0 0 0 0 0 0 0 0 0 0 0 0 15 23 4 0 312 5 0 0 0 0 0 1 2 8 32 51 23 5 2 26 276 468 482 472 541 606 516
0 1 0 0 0 0 0 0 0 0 0 0 0 0 28 58 45 0 0 2 26 0 0 0 0 0 0 0 0 3 17 32 16 17 241 351 389 397 445 505 563 566
6 344 450 0 0 0 0 0 0 0 0 0 0 0 0 0 4 1 0 0 0 0 0 0 0 0 0 0 0 0 5 45 41 18 121 316 351 334 366 501 561 589
367 510 428 0 0 0 0 0 0 0 0 0 0 0 0 0 0 0 0 0 0 0 0 0 0 0 0 0 0 1 0 0 3 1 139 275 320 341 381 403 437 430
400 457 462 457 381 0 0 0 0 0 0 0 0 0 0 0 0 0 0 0 0 0 0 0 0 0 0 0 0 1 3 19 54 274 298 318 355 352 360 313 313 294
413 546 713 712 546 0 0 0 0 0 0 0 0 0 0 0 0 0 0 0 0 0 0 0 0 0 0 0 0 2 26 27 67 78 326 336 304 292 303 328 322 278
560 708 868 820 627 280 0 0 0 0 0 0 0 0 0 0 0 0 0 0 0 0 0 0 0 0 0 0 0 0 7 22 8 5 8 5 300 278 246 209 183 159
716 862 940 841 674 502 0 0 0 0 2 0 0 0 0 0 0 0 0 0 0 0 0 0 0 0 0 0 0 3 12 24 22 6 146 368 320 312 291 223 136 0
705 806 867 785 732 576 0 0 0 0 0 18 0 0 0 0 0 0 0 0 0 0 0 0 0 0 0 0 2 16 17 12 13 389 406 367 371 346 288 154 1 0
724 818 881 832 772 585 216 0 0 10 35 2 7 0 0 0 0 0 0 0 0 0 0 0 0 0 0 0 0 1 3 7 62 386 465 480 428 368 333 190 20 0
790 919 1007 916 792 595 0 3 15 21 28 0 0 0 0 0 0 0 0 0 0 0 0 0 0 0 0 0 0 0 0 2 12 340 426 463 396 370 331 186 16 0
670 957 984 892 774 641 71 7 17 5 0 0 0 0 0 0 0 0 0 0 0 0 0 0 0 0 0 0 0 0 0 1 10 191 339 365 368 364 292 167 0 0
692 830 924 868 806 721 542 444 167 166 0 0 0 0 0 0 0 0 0 0 0 0 0 0 0 0 0 0 0 1 0 3 26 209 286 337 352 344 288 205 123 122
612 752 832 861 881 686 642 524 150 0 447 0 0 0 0 0 0 0 0 0 0 0 0 0 0 0 0 0 0 10 37 6 20 192 258 284 277 264 253 223 173 138
535 725 840 886 828 808 593 606 456 472 456 208 0 0 0 0 0 0 0 0 0 0 0 46 10 0 0 0 0 0 60 198 160 197 224 216 204 215 248 263 265 253
493 635 846 854 714 594 510 357 502 516 439 180 0 0 0 0 0 0 0 0 0 0 139 118 63 24 0 0 0 0 0 33 166 231 254 268 272 267 279 294 306 286
508 662 763 669 569 367 314 346 436 438 410 383 0 0 0 0 0 0 0 0 0 2 201 202 151 92 50 0 0 0 0 0 8 27 181 265 262 228 215 244 251 188
562 741 359 335 261 400 416 324 324 400 456 463 0 0 0 0 0 0 0 88 180 214 231 236 211 194 144 38 0 0 0 0 0 0 1 0 0 26 127 180 201 144
781 280 237 292 396 413 404 397 430 487 569 597 398 104 1 0 0 0 0 179 205 231 260 298 315 261 152 61 39 0 0 0 0 0 0 0 0 0 23 135 164 140
685 344 354 368 482 474 388 358 413 588 741 693 498 412 376 368 330 5 9 6 100 257 320 397 409 325 174 82 56 49 5 0 0 17 20 0 0 0 0 48 0 271
812 151 446 442 409 320 172 363 540 710 902 785 558 423 363 279 19 95 54 15 120 348 423 490 523 484 311 182 150 134 97 39 0 5 2 0 0 19 22 174 308 315
1009 699 510 529 470 327 285 460 730 972 1015 703 479 318 406 390 228 89 37 92 124 466 527 561 642 561 199 144 212 232 184 165 49 0 0 0 27 2 138 165 0 86
1122 882 762 608 522 379 313 469 732 854 676 410 480 592 665 743 732 574 457 482 566 579 615 638 685 684 458 130 135 229 169 128 113 81 0 0 0 0 1 0 145 160
Wind_Speed
nan nan nan nan nan nan nan nan nan nan nan nan nan nan nan nan nan nan nan nan nan nan nan nan nan 27 28 29 30 31 32 34 35 36 36 36 35 36 35 34 35 36
nan nan nan nan nan nan nan nan nan nan nan nan nan nan nan nan nan nan nan nan 28 27 nan nan nan 28 29 31 31 32 33 34 34 36 36 35 34 34 33 34 35 35
nan nan nan nan nan nan nan nan nan nan nan nan nan nan nan nan nan nan nan nan nan nan nan nan nan nan nan nan nan 33 34 nan nan nan 37 36 35 34 33 34 35 36
nan nan nan nan nan nan nan nan nan nan nan nan nan nan nan nan nan nan nan 30 nan nan nan nan nan nan nan nan nan nan nan nan nan nan nan 36 36 35 34 35 36 37
nan nan nan nan nan nan nan nan nan nan nan nan nan nan nan nan nan nan nan nan nan nan nan nan nan nan nan nan nan nan nan nan nan nan 39 37 35 36 35 37 37 37
nan 30 29 nan nan nan nan nan nan nan nan nan nan nan nan nan nan nan nan nan nan nan nan nan nan nan nan nan nan nan nan nan nan nan 38 36 34 35 36 37 38 38
32 31 30 nan nan nan nan nan nan nan nan nan nan nan nan nan nan nan nan nan nan nan nan nan nan nan nan nan nan nan nan nan nan nan 38 35 35 34 36 37 37 37
34 32 31 31 31 nan nan nan nan nan nan nan nan nan nan nan nan nan nan nan nan nan nan nan nan nan nan nan nan nan nan nan nan 37 37 36 36 36 35 36 36 37
34 32 32 32 32 nan nan nan nan nan nan nan nan nan nan nan nan nan nan nan nan nan nan nan nan nan nan nan nan nan nan nan nan nan 38 37 37 36 36 35 36 37
33 33 34 33 32 32 nan nan nan nan nan nan nan nan nan nan nan nan nan nan nan nan nan nan nan nan nan nan nan nan nan nan nan nan nan nan 38 37 36 37 37 36
33 34 34 34 33 33 nan nan nan nan nan nan nan nan nan nan nan nan nan nan nan nan nan nan nan nan nan nan nan nan nan nan nan nan 39 38 38 36 36 37 37 nan
34 35 35 35 35 34 nan nan nan nan nan nan nan nan nan nan nan nan nan nan nan nan nan nan nan nan nan nan nan nan nan nan nan 41 40 38 36 35 35 37 nan nan
35 35 35 36 36 35 34 nan nan nan nan nan nan nan nan nan nan nan nan nan nan nan nan nan nan nan nan nan nan nan nan nan nan 40 39 38 35 34 35 36 nan nan
36 36 36 37 36 36 nan nan nan nan nan nan nan nan nan nan nan nan nan nan nan nan nan nan nan nan nan nan nan nan nan nan nan 39 37 35 34 33 34 34 nan nan
35 35 37 38 37 37 nan nan nan nan nan nan nan nan nan nan nan nan nan nan nan nan nan nan nan nan nan nan nan nan nan nan nan 37 35 32 32 31 32 32 nan nan
36 37 38 39 37 36 35 33 32 30 nan nan nan nan nan nan nan nan nan nan nan nan nan nan nan nan nan nan nan nan nan nan nan 35 32 30 30 30 29 30 32 35
37 37 39 38 35 35 36 33 31 nan 33 nan nan nan nan nan nan nan nan nan nan nan nan nan nan nan nan nan nan nan nan nan nan 37 31 29 29 29 28 29 32 35
36 39 39 36 34 33 35 32 33 34 34 35 nan nan nan nan nan nan nan nan nan nan nan nan nan nan nan nan nan nan nan 45 45 40 33 29 28 28 28 29 31 33
37 38 38 32 31 31 32 34 32 32 34 36 nan nan nan nan nan nan nan nan nan nan 35 38 nan nan nan nan nan nan nan nan 42 40 34 28 26 26 27 30 32 33
33 34 34 29 30 31 34 33 31 31 34 36 nan nan nan nan nan nan nan nan nan nan 38 39 40 nan nan nan nan nan nan nan nan nan 32 27 26 27 29 32 35 36
34 37 35 31 31 33 33 32 31 32 35 37 nan nan nan nan nan nan nan nan 42 40 40 40 42 43 41 nan nan nan nan nan nan nan nan nan nan nan 33 34 38 40
42 41 36 33 32 32 31 30 31 33 34 38 40 42 nan nan nan nan nan 44 43 41 42 43 45 46 45 nan nan nan nan nan nan nan nan nan nan nan nan 38 43 44
40 42 38 32 31 31 30 31 33 33 35 40 40 41 43 43 44 nan nan nan 44 44 46 47 48 50 50 nan nan nan nan nan nan nan nan nan nan nan nan nan nan 46
39 38 35 31 32 32 33 34 35 36 38 40 40 42 42 42 nan nan nan nan 45 46 48 50 50 50 51 50 49 49 nan nan nan nan nan nan nan nan nan 46 46 41
47 47 41 34 32 33 35 36 37 37 40 41 39 40 41 42 42 nan nan nan 45 47 48 50 51 50 50 50 50 51 54 53 nan nan nan nan nan nan 45 45 nan nan
45 47 42 35 29 30 34 36 38 41 41 41 39 41 41 40 42 43 42 42 45 47 50 52 52 51 50 50 52 53 56 54 54 nan nan nan nan nan nan nan 39 37
Wind_Direction
nan nan nan nan nan nan nan nan nan nan nan nan nan nan nan nan nan nan nan nan nan nan nan nan nan 313 314 315 315 314 317 319 321 321 321 319 321 321 324 325 324 326
nan nan nan nan nan nan nan nan nan nan nan nan nan nan nan nan nan nan nan nan 316 317 nan nan nan 316 315 315 315 316 317 318 321 320 321 321 324 323 325 325 326 326
nan nan nan nan nan nan nan nan nan nan nan nan nan nan nan nan nan nan nan nan nan nan nan nan nan nan nan nan nan 316 318 nan nan nan 321 324 324 324 327 326 326 327
nan nan nan nan nan nan nan nan nan nan nan nan nan nan nan nan nan nan nan 317 nan nan nan nan nan nan nan nan nan nan nan nan nan nan nan 322 323 326 329 328 328 325
nan nan nan nan nan nan nan nan nan nan nan nan nan nan nan nan nan nan nan nan nan nan nan nan nan nan nan nan nan nan nan nan nan nan 322 324 325 326 329 327 326 326
nan 304 305 nan nan nan nan nan nan nan nan nan nan nan nan nan nan nan nan nan nan nan nan nan nan nan nan nan nan nan nan nan nan nan 323 326 327 326 327 327 326 326
306 305 309 nan nan nan nan nan nan nan nan nan nan nan nan nan nan nan nan nan nan nan nan nan nan nan nan nan nan nan nan nan nan nan 323 326 325 326 325 325 325 325
305 307 307 303 305 nan nan nan nan nan nan nan nan nan nan nan nan nan nan nan nan nan nan nan nan nan nan nan nan nan nan nan nan 322 322 324 323 325 325 324 324 324
304 307 303 304 305 nan nan nan nan nan nan nan nan nan nan nan nan nan nan nan nan nan nan nan nan nan nan nan nan nan nan nan nan nan 322 323 324 326 326 324 324 324
303 303 302 303 304 302 nan nan nan nan nan nan nan nan nan nan nan nan nan nan nan nan nan nan nan nan nan nan nan nan nan nan nan nan nan nan 324 324 324 324 325 324
301 300 302 302 303 300 nan nan nan nan nan nan nan nan nan nan nan nan nan nan nan nan nan nan nan nan nan nan nan nan nan nan nan nan 319 320 322 323 323 323 323 nan
299 300 302 302 301 298 nan nan nan nan nan nan nan nan nan nan nan nan nan nan nan nan nan nan nan nan nan nan nan nan nan nan nan 316 317 317 318 320 321 322 nan nan
300 302 300 299 299 297 294 nan nan nan nan nan nan nan nan nan nan nan nan nan nan nan nan nan nan nan nan nan nan nan nan nan nan 314 315 316 316 318 319 321 nan nan
301 300 297 295 293 292 nan nan nan nan nan nan nan nan nan nan nan nan nan nan nan nan nan nan nan nan nan nan nan nan nan nan nan 315 316 316 315 315 318 321 nan nan
293 291 289 288 289 290 nan nan nan nan nan nan nan nan nan nan nan nan nan nan nan nan nan nan nan nan nan nan nan nan nan nan nan 318 316 315 313 314 317 320 nan nan
287 284 285 286 287 289 291 294 294 299 nan nan nan nan nan nan nan nan nan nan nan nan nan nan nan nan nan nan nan nan nan nan nan 319 315 313 313 314 316 319 322 320
281 281 281 285 288 290 289 294 301 nan 299 nan nan nan nan nan nan nan nan nan nan nan nan nan nan nan nan nan nan nan nan nan nan 325 317 312 311 314 318 321 321 317
280 278 279 282 283 288 296 303 298 299 301 302 nan nan nan nan nan nan nan nan nan nan nan nan nan nan nan nan nan nan nan 333 328 323 318 313 311 315 320 322 323 317
276 278 284 289 289 291 295 297 299 300 302 303 nan nan nan nan nan nan nan nan nan nan 315 322 nan nan nan nan nan nan nan nan 324 318 316 315 311 314 319 324 324 321
276 286 283 287 293 295 294 297 298 304 304 304 nan nan nan nan nan nan nan nan nan nan 312 318 325 nan nan nan nan nan nan nan nan nan 313 314 310 308 315 324 327 324
281 287 300 301 294 293 295 299 302 302 301 303 nan nan nan nan nan nan nan nan 308 310 312 319 326 335 338 nan nan nan nan nan nan nan nan nan nan nan 309 319 323 322
277 291 300 294 291 291 297 301 301 302 304 300 299 300 nan nan nan nan nan 310 313 314 315 320 325 333 336 nan nan nan nan nan nan nan nan nan nan nan nan 310 317 318
277 288 286 285 286 290 297 300 300 301 298 295 299 300 302 305 308 nan nan nan 318 316 316 320 324 330 331 nan nan nan nan nan nan nan nan nan nan nan nan nan nan 313
278 284 283 282 286 297 303 302 298 291 293 294 299 299 303 307 nan nan nan nan 317 317 317 320 323 324 325 325 328 331 nan nan nan nan nan nan nan nan nan 303 308 313
275 279 281 286 297 307 306 300 296 294 288 290 296 299 302 302 305 nan nan nan 315 317 318 318 318 318 321 324 326 328 326 322 nan nan nan nan nan nan 305 306 nan nan
278 285 285 289 303 307 300 297 289 284 288 293 295 299 303 306 307 311 313 314 314 314 314 314 315 316 316 321 324 325 326 322 317 nan nan nan nan nan nan nan 307 304